• In Netherlands
  • List of Countries
  • For 7 days
  • Water Temperature
  • Satellite Maps
  • Weather Map
  • Weather Widgets
  • user-avatar
    Login

    Hourly Weather Trinidad

    Today, 24 June, Saturday

    Time Temperature Precipitation Wind Pressure Humidity
    00:00 +22°C° 0 mm 1 mps 745 mmHg 78%
    01:00 +21°C° 0 mm 1 mps 745 mmHg 79%
    02:00 +21°C° 0 mm 1 mps 745 mmHg 80%
    03:00 +21°C° 0 mm 1 mps 745 mmHg 81%
    04:00 +21°C° 0 mm 1 mps 745 mmHg 82%
    05:00 +21°C° 0 mm 1 mps 745 mmHg 83%
    06:00 +22°C° 0 mm 1 mps 746 mmHg 80%
    07:00 +23°C° 0 mm 1 mps 746 mmHg 77%
    08:00 +24°C° 0 mm 1 mps 746 mmHg 73%
    09:00 +26°C° 0 mm 1 mps 747 mmHg 64%
    10:00 +29°C° 0 mm 2 mps 747 mmHg 56%
    11:00 +32°C° 0 mm 2 mps 747 mmHg 47%
    12:00 +32°C° 0 mm 2 mps 747 mmHg 44%
    13:00 +34°C° 0 mm 2 mps 746 mmHg 41%
    14:00 +35°C° 0 mm 3 mps 745 mmHg 38%
    15:00 +34°C° 0 mm 2 mps 745 mmHg 42%
    16:00 +32°C° 0 mm 2 mps 745 mmHg 47%
    17:00 +31°C° 0 mm 1 mps 744 mmHg 52%
    18:00 +29°C° 0 mm 1 mps 745 mmHg 57%
    19:00 +27°C° 0 mm 1 mps 745 mmHg 62%
    20:00 +25°C° 0 mm 1 mps 745 mmHg 68%
    21:00 +24°C° 0 mm 1 mps 746 mmHg 70%
    22:00 +24°C° 0 mm 1 mps 746 mmHg 72%
    23:00 +23°C° 0 mm 1 mps 746 mmHg 75%

    Tomorrow, 25 June, Sunday

    Time Temperature Precipitation Wind Pressure Humidity
    00:00 +23°C° 0 mm 1 mps 746 mmHg 76%
    01:00 +22°C° 0 mm 1 mps 746 mmHg 77%
    02:00 +22°C° 0 mm 1 mps 746 mmHg 79%
    03:00 +22°C° 0 mm 1 mps 746 mmHg 78%
    04:00 +22°C° 0 mm 1 mps 746 mmHg 78%
    05:00 +22°C° 0 mm 1 mps 746 mmHg 77%
    06:00 +23°C° 0 mm 1 mps 746 mmHg 74%
    07:00 +24°C° 0 mm 1 mps 747 mmHg 72%
    08:00 +25°C° 0 mm 1 mps 747 mmHg 69%
    09:00 +28°C° 0 mm 1 mps 747 mmHg 61%
    10:00 +31°C° 0 mm 1 mps 748 mmHg 52%
    11:00 +34°C° 0 mm 1 mps 748 mmHg 44%
    12:00 +34°C° 0 mm 1 mps 747 mmHg 42%
    13:00 +35°C° 0 mm 2 mps 746 mmHg 40%
    14:00 +36°C° 0 mm 2 mps 745 mmHg 38%
    15:00 +35°C° 0 mm 2 mps 745 mmHg 42%
    16:00 +34°C° 0 mm 2 mps 745 mmHg 46%
    17:00 +32°C° 0 mm 1 mps 744 mmHg 51%
    18:00 +30°C° 0 mm 1 mps 744 mmHg 56%
    19:00 +28°C° 0 mm 1 mps 745 mmHg 61%
    20:00 +26°C° 0 mm 1 mps 745 mmHg 67%
    21:00 +25°C° 0 mm 1 mps 745 mmHg 70%
    22:00 +24°C° 0 mm 1 mps 746 mmHg 73%
    23:00 +24°C° 0 mm 1 mps 746 mmHg 76%

    Day after tomorrow, 26 June, Monday

    Time Temperature Precipitation Wind Pressure Humidity
    00:00 +23°C° 0 mm 1 mps 746 mmHg 79%
    01:00 +23°C° 0 mm 1 mps 745 mmHg 82%
    02:00 +22°C° 0 mm 1 mps 745 mmHg 84%
    03:00 +22°C° 0 mm 1 mps 745 mmHg 84%
    04:00 +22°C° 0 mm 1 mps 745 mmHg 85%
    05:00 +22°C° 0 mm 1 mps 745 mmHg 85%
    06:00 +23°C° 0 mm 1 mps 745 mmHg 80%
    07:00 +25°C° 0 mm 1 mps 746 mmHg 75%
    08:00 +26°C° 0 mm 1 mps 746 mmHg 71%
    09:00 +28°C° 0 mm 1 mps 746 mmHg 62%
    10:00 +31°C° 0 mm 2 mps 746 mmHg 54%
    11:00 +34°C° 0 mm 2 mps 747 mmHg 45%
    12:00 +35°C° 0 mm 2 mps 746 mmHg 43%
    13:00 +35°C° 0 mm 3 mps 745 mmHg 40%
    14:00 +36°C° 0 mm 3 mps 744 mmHg 38%
    15:00 +35°C° 0 mm 2 mps 744 mmHg 42%
    16:00 +34°C° 0 mm 2 mps 743 mmHg 46%
    17:00 +33°C° 0 mm 1 mps 743 mmHg 50%
    18:00 +30°C° 0 mm 1 mps 743 mmHg 56%
    19:00 +28°C° 0 mm 2 mps 743 mmHg 62%
    20:00 +26°C° 0 mm 2 mps 744 mmHg 68%
    21:00 +26°C° 0 mm 1 mps 744 mmHg 71%
    22:00 +25°C° 0 mm 1 mps 744 mmHg 75%
    23:00 +24°C° 0 mm 1 mps 744 mmHg 78%

    27 June, Tuesday

    Time Temperature Precipitation Wind Pressure Humidity
    00:00 +24°C° 0 mm 1 mps 744 mmHg 79%
    01:00 +24°C° 0 mm 1 mps 744 mmHg 79%
    02:00 +24°C° 0 mm 1 mps 744 mmHg 79%
    03:00 +24°C° 0 mm 1 mps 744 mmHg 81%
    04:00 +23°C° 0 mm 1 mps 744 mmHg 82%
    05:00 +23°C° 0 mm 1 mps 744 mmHg 83%
    06:00 +24°C° 0 mm 1 mps 744 mmHg 80%
    07:00 +24°C° 0 mm 1 mps 745 mmHg 78%
    08:00 +25°C° 0 mm 1 mps 745 mmHg 75%
    09:00 +28°C° 0 mm 2 mps 745 mmHg 66%
    10:00 +30°C° 0 mm 2 mps 746 mmHg 57%
    11:00 +33°C° 0 mm 3 mps 746 mmHg 48%
    12:00 +34°C° 0 mm 3 mps 745 mmHg 45%
    13:00 +35°C° 0 mm 3 mps 744 mmHg 41%
    14:00 +36°C° 0 mm 3 mps 743 mmHg 38%
    15:00 +35°C° 0 mm 3 mps 743 mmHg 42%
    16:00 +34°C° 0 mm 2 mps 743 mmHg 46%
    17:00 +34°C° 0 mm 2 mps 742 mmHg 49%
    18:00 +31°C° 0 mm 1 mps 743 mmHg 55%
    19:00 +28°C° 0 mm 1 mps 743 mmHg 61%
    20:00 +26°C° 0 mm 1 mps 744 mmHg 67%
    21:00 +26°C° 0 mm 1 mps 744 mmHg 69%
    22:00 +25°C° 0 mm 1 mps 744 mmHg 71%
    23:00 +25°C° 0 mm 1 mps 745 mmHg 74%

    28 June, Wednesday

    Time Temperature Precipitation Wind Pressure Humidity
    00:00 +25°C° 0 mm 1 mps 744 mmHg 72%
    01:00 +25°C° 0 mm 1 mps 744 mmHg 70%
    02:00 +25°C° 0 mm 1 mps 744 mmHg 68%
    03:00 +25°C° 0 mm 1 mps 745 mmHg 68%
    04:00 +25°C° 0 mm 1 mps 745 mmHg 67%
    05:00 +25°C° 0 mm 1 mps 745 mmHg 66%
    06:00 +25°C° 0 mm 1 mps 745 mmHg 66%
    07:00 +25°C° 0 mm 1 mps 746 mmHg 66%
    08:00 +26°C° 0 mm 1 mps 747 mmHg 66%
    09:00 +27°C° 0 mm 1 mps 747 mmHg 60%
    10:00 +29°C° 0 mm 1 mps 747 mmHg 54%
    11:00 +31°C° 0 mm 1 mps 748 mmHg 48%
    12:00 +32°C° 0 mm 2 mps 747 mmHg 44%
    13:00 +34°C° 0 mm 2 mps 746 mmHg 40%
    14:00 +36°C° 0 mm 2 mps 745 mmHg 36%
    15:00 +34°C° 0 mm 1 mps 745 mmHg 42%
    16:00 +34°C° 0 mm 1 mps 745 mmHg 47%
    17:00 +31°C° 0 mm 0 mps 745 mmHg 52%
    18:00 +31°C° 0 mm 1 mps 745 mmHg 54%
    19:00 +29°C° 0 mm 1 mps 745 mmHg 57%
    20:00 +27°C° 0 mm 1 mps 746 mmHg 59%
    21:00 +27°C° 0 mm 2 mps 746 mmHg 63%
    22:00 +26°C° 0 mm 2 mps 746 mmHg 66%
    23:00 +25°C° 0 mm 2 mps 747 mmHg 69%

    29 June, Thursday

    Time Temperature Precipitation Wind Pressure Humidity
    00:00 +25°C° 0 mm 2 mps 746 mmHg 72%
    01:00 +24°C° 0 mm 2 mps 746 mmHg 75%
    02:00 +24°C° 0 mm 2 mps 746 mmHg 78%
    03:00 +23°C° 0 mm 2 mps 746 mmHg 81%
    04:00 +23°C° 0 mm 2 mps 746 mmHg 83%
    05:00 +22°C° 0 mm 1 mps 746 mmHg 86%
    06:00 +23°C° 0 mm 1 mps 747 mmHg 84%
    07:00 +23°C° 0 mm 1 mps 747 mmHg 82%
    08:00 +24°C° 0 mm 2 mps 748 mmHg 79%
    09:00 +26°C° 0 mm 2 mps 748 mmHg 69%
    10:00 +28°C° 0 mm 2 mps 748 mmHg 60%
    11:00 +31°C° 0 mm 2 mps 749 mmHg 50%
    12:00 +32°C° 0 mm 1 mps 748 mmHg 46%
    13:00 +33°C° 0 mm 1 mps 747 mmHg 43%
    14:00 +35°C° 0 mm 1 mps 747 mmHg 39%
    15:00 +34°C° 0 mm 1 mps 746 mmHg 43%
    16:00 +33°C° 0 mm 1 mps 746 mmHg 46%
    17:00 +32°C° 0 mm 1 mps 746 mmHg 50%
    18:00 +30°C° 0 mm 1 mps 746 mmHg 53%
    19:00 +28°C° 0 mm 1 mps 746 mmHg 56%
    20:00 +27°C° 0 mm 2 mps 747 mmHg 60%
    21:00 +26°C° 0 mm 2 mps 747 mmHg 64%
    22:00 +25°C° 0 mm 2 mps 747 mmHg 68%
    23:00 +25°C° 0 mm 3 mps 748 mmHg 72%
    Show more